[[{"header":{"parameterUnit":"m.s-1","parameterCategory":1,"la1":30.2992,"la2":30.254,"lo1":-89.0895,"lo2":-89.0443,"dy":0.0025,"dx":0.0025,"nx":19,"ny":19,"refTime":"2026-04-06T21:00:00:Z","depth":0,"parameterNumber":2,"parameterNumberName":"U-component_of_WINDS"},"data":[0,0,0,-2.9214,-2.9217,-2.9334,-2.9334,-2.9505,-2.9507,0,0,0,0,0,0,0,0,0,0,0,-2.9192,-2.9194,-2.9214,-2.9217,-2.9334,-2.9334,-2.9505,-2.9507,0,0,0,0,0,0,0,0,0,0,0,-2.9191,-2.9193,-2.9195,-2.9218,-2.9334,-2.9334,-2.9504,-2.9409,0,0,0,0,0,0,0,0,0,0,-2.9292,-2.9284,-2.9193,-2.9195,-2.9218,-2.9334,-2.9335,-2.9404,-2.9415,-2.9461,0,-2.9506,0,-2.9509,-2.952,-2.952,0,0,0,-2.9208,-2.9275,-2.9295,-2.9196,-2.922,-2.9334,-2.9279,-2.941,-2.9422,-2.9476,-2.9508,-2.9514,-2.9512,-2.9521,-2.9522,-2.9819,-2.9821,0,0,-2.9202,-2.922,-2.9286,-2.9303,-2.9286,-2.9275,-2.9282,-2.9417,-2.9453,-2.9508,-2.9517,-2.9515,-2.9522,-2.9524,-2.9818,-2.982,0,0,0,-2.9189,-2.9216,-2.9232,-2.9297,-2.9316,-2.9279,-2.9287,-2.9447,-2.9451,-2.9519,-2.9517,-2.9523,-2.9526,-2.9816,-2.9819,-2.9928,0,0,0,-2.9185,-2.9209,-2.923,-2.9243,-2.9314,-2.9383,-2.9315,-2.9442,-2.9456,-2.9516,-2.9523,-2.9527,-2.9814,-2.9817,-2.992,-2.9977,0,0,0,-2.918,-2.9208,-2.9229,-2.9243,-2.9294,-2.9381,-2.9392,-2.9444,-2.9455,-2.952,-2.9528,-2.9812,-2.9817,-2.9914,-2.9966,-3.0062,0,0,0,-2.9181,-2.9325,-2.9231,-2.9391,-2.9294,-2.9447,-2.939,-2.9504,-2.9572,-2.9524,-2.9814,-2.9818,-2.9912,-2.996,-3.0055,-3.0147,-3.0186,0,0,-2.9374,-2.9349,-2.9441,-2.9361,-2.9536,-2.9427,-2.9618,-2.9663,-2.9652,-2.9764,-2.9771,-2.9923,-2.9966,-3.006,-3.0398,-3.043,0,0,0,-2.9509,-2.9576,-2.9618,-2.9684,-2.9721,-2.9758,-2.9772,-2.9788,-2.9882,-2.9714,-2.9981,-3.0006,-3.0061,-3.0104,-3.0131,-3.0178,-2.9838,-2.9838,-2.9838,-2.9811,-2.9787,-2.9939,-2.9931,-2.9995,-3.0007,-3.0057,-3.0082,-3.004,-3.0104,-3.0138,-3.0346,-3.0397,-3.0417,-3.0466,-3.0183,-3.0183,-3.0183,-3.0184,-3.0092,-3.0184,-3.0123,-3.0249,-3.0224,-3.033,-3.0346,-3.0313,-3.0408,-3.0318,-3.0366,-3.0272,-3.0452,-3.0494,-3.0192,-3.019,-3.0189,-3.0189,-3.0188,-3.0289,-3.0329,-3.0345,-3.0437,-3.0511,-3.0496,-3.059,-3.0563,-3.0539,-3.0585,-3.0619,-3.0617,-3.0613,-3.0602,-3.0603,-3.0604,-3.0604,-3.0605,-3.0605,-3.0487,-3.0502,-3.0584,-3.0635,-3.0673,-3.072,-3.0732,-3.0769,-3.0803,-3.0777,-3.0777,-3.073,-3.0473,-3.0411,-3.0617,-3.0615,-3.0613,-3.0612,-3.0611,-3.0785,-3.0713,-3.084,-3.0879,-3.0935,-3.101,-3.0973,-3.1051,-3.1077,-3.1124,-3.1066,-3.088,-3.0854,-3.0832,-3.078,-3.107,-3.107,-3.107,-3.107,-3.0953,-3.0936,-3.1059,-3.1122,-3.1181,-3.116,-3.1304,-3.1314,-3.1313,-3.1328,-3.1282,-3.1209,-3.1189,-3.1175,-3.1146,-3.1097,-3.146,-3.1461,-3.1461,-3.1135,-3.1122,-3.1251,-3.1248,-3.129,-3.1326,-3.1461,-3.1536,-3.152,-3.1476,-3.134,-3.1323,-3.1206,-3.1169,-3.1126,-3.1082,-3.0991,0,0]},{"header":{"parameterUnit":"m.s-1","parameterCategory":1,"la1":30.2992,"la2":30.254,"lo1":-89.0895,"lo2":-89.0443,"dy":0.0025,"dx":0.0025,"nx":19,"ny":19,"refTime":"2026-04-06T21:00:00:Z","depth":0,"parameterNumber":3,"parameterNumberName":"V-component_of_WINDS"},"data":[0,0,0,-6.4102,-6.4106,-6.4265,-6.4266,-6.4485,-6.4487,0,0,0,0,0,0,0,0,0,0,0,-6.4068,-6.407,-6.4102,-6.4106,-6.4265,-6.4266,-6.4485,-6.4487,0,0,0,0,0,0,0,0,0,0,0,-6.4067,-6.407,-6.4072,-6.4107,-6.4265,-6.4266,-6.4484,-6.4357,0,0,0,0,0,0,0,0,0,0,-6.42,-6.4182,-6.4069,-6.4072,-6.4108,-6.4265,-6.4266,-6.4351,-6.4365,-6.4421,0,-6.4477,0,-6.4486,-6.4503,-6.4504,0,0,0,-6.4095,-6.4171,-6.4202,-6.4072,-6.411,-6.4265,-6.4191,-6.4359,-6.4375,-6.444,-6.448,-6.4487,-6.4489,-6.4505,-6.4506,-6.4867,-6.4869,0,0,-6.4087,-6.4103,-6.4191,-6.4213,-6.4194,-6.4186,-6.4196,-6.4368,-6.4412,-6.448,-6.4492,-6.4493,-6.4506,-6.4508,-6.4865,-6.4868,0,0,0,-6.4069,-6.4098,-6.4124,-6.4205,-6.4232,-6.419,-6.4202,-6.4404,-6.4411,-6.4494,-6.4496,-6.4508,-6.4511,-6.4863,-6.4866,-6.4991,0,0,0,-6.4063,-6.4087,-6.4121,-6.4133,-6.423,-6.4321,-6.4234,-6.4399,-6.4418,-6.4494,-6.4508,-6.4513,-6.486,-6.4864,-6.4983,-6.5048,0,0,0,-6.4053,-6.4086,-6.4114,-6.4133,-6.4203,-6.4318,-6.4335,-6.4403,-6.442,-6.4504,-6.4514,-6.4858,-6.4864,-6.4975,-6.5035,-6.5147,0,0,0,-6.4047,-6.4222,-6.4116,-6.4312,-6.4202,-6.4395,-6.4334,-6.4476,-6.4564,-6.4509,-6.486,-6.4866,-6.4973,-6.5027,-6.5139,-6.5245,-6.5291,0,0,-6.4277,-6.4251,-6.4364,-6.4274,-6.4491,-6.4369,-6.4604,-6.4667,-6.4658,-6.4797,-6.4805,-6.4985,-6.5034,-6.5146,-6.5542,-6.5579,0,0,0,-6.4443,-6.4525,-6.4579,-6.4664,-6.4718,-6.4768,-6.4793,-6.4816,-6.4933,-6.4734,-6.5056,-6.5084,-6.5149,-6.5198,-6.523,-6.5283,-6.4889,-6.4889,-6.4888,-6.4793,-6.4774,-6.496,-6.496,-6.5042,-6.5066,-6.513,-6.5164,-6.512,-6.5196,-6.5237,-6.5481,-6.554,-6.5563,-6.5619,-6.5291,-6.5292,-6.5292,-6.5293,-6.5128,-6.5241,-6.5177,-6.5336,-6.5313,-6.5443,-6.5472,-6.5435,-6.5551,-6.5448,-6.5504,-6.5393,-6.5604,-6.5652,-6.5302,-6.53,-6.5299,-6.5298,-6.5298,-6.5356,-6.5406,-6.5432,-6.5552,-6.5645,-6.5637,-6.5752,-6.5726,-6.5702,-6.5757,-6.5797,-6.5795,-6.5789,-6.5778,-6.5779,-6.578,-6.5781,-6.5781,-6.5782,-6.5582,-6.5607,-6.5709,-6.5779,-6.5829,-6.5892,-6.5915,-6.5963,-6.6008,-6.5979,-6.598,-6.5926,-6.5629,-6.5554,-6.5795,-6.5792,-6.5791,-6.5789,-6.5789,-6.593,-6.5847,-6.6005,-6.6055,-6.6134,-6.6227,-6.6192,-6.629,-6.6325,-6.6382,-6.6316,-6.61,-6.607,-6.6045,-6.5984,-6.6321,-6.6321,-6.6321,-6.6321,-6.6122,-6.6104,-6.6259,-6.634,-6.6417,-6.6401,-6.6576,-6.6594,-6.66,-6.6619,-6.6566,-6.6482,-6.6457,-6.6442,-6.6408,-6.635,-6.6773,-6.6773,-6.6774,-6.6334,-6.6322,-6.6479,-6.6485,-6.6544,-6.6594,-6.6757,-6.685,-6.6838,-6.6791,-6.6633,-6.6614,-6.6478,-6.6435,-6.6385,-6.6334,-6.6227,0,0]}]]